TimeMST,TemperatureF,Dew PointF,Humidity,Sea Level PressureIn,VisibilityMPH,Wind Direction,Wind SpeedMPH,Gust SpeedMPH,PrecipitationIn,Events,Conditions,WindDirDegrees,DateUTC
12:53 AM,35.1,24.1,64,30.09,10.0,Calm,Calm,-,N/A,,Clear,0,2012-12-29 07:53:00
1:53 AM,43.0,24.1,47,30.06,10.0,ESE,9.2,-,N/A,,Clear,120,2012-12-29 08:53:00
2:53 AM,35.1,26.1,70,30.08,10.0,SSE,6.9,-,N/A,,Clear,150,2012-12-29 09:53:00
3:53 AM,35.1,26.1,70,30.08,10.0,SSE,5.8,-,N/A,,Clear,150,2012-12-29 10:53:00
4:53 AM,35.6,24.8,65,30.08,10.0,South,5.8,-,N/A,,Clear,180,2012-12-29 11:53:00
5:53 AM,35.1,25.0,67,30.06,10.0,SE,11.5,-,N/A,,Clear,140,2012-12-29 12:53:00
6:53 AM,39.0,21.9,50,30.07,10.0,SSE,10.4,-,N/A,,Clear,150,2012-12-29 13:53:00
7:53 AM,30.9,21.9,69,30.12,10.0,SSE,5.8,-,N/A,,Clear,160,2012-12-29 14:53:00
8:53 AM,43.0,21.0,42,30.11,10.0,SE,10.4,-,N/A,,Clear,140,2012-12-29 15:53:00
9:53 AM,48.9,21.0,33,30.11,10.0,SSE,8.1,-,N/A,,Clear,160,2012-12-29 16:53:00
10:53 AM,54.0,19.9,26,30.08,10.0,ESE,13.8,-,N/A,,Clear,120,2012-12-29 17:53:00
11:53 AM,57.9,19.0,22,30.03,10.0,SE,12.7,-,N/A,,Clear,140,2012-12-29 18:53:00
12:53 PM,60.1,19.0,20,29.96,10.0,ESE,11.5,-,N/A,,Clear,110,2012-12-29 19:53:00
1:53 PM,62.1,19.0,19,29.93,10.0,East,10.4,18.4,N/A,,Clear,100,2012-12-29 20:53:00
2:53 PM,64.0,19.0,18,29.93,10.0,ESE,6.9,-,N/A,,Clear,120,2012-12-29 21:53:00
3:53 PM,64.0,18.0,17,29.92,10.0,SE,5.8,-,N/A,,Clear,130,2012-12-29 22:53:00
4:53 PM,63.0,19.0,18,29.91,10.0,Calm,Calm,-,N/A,,Clear,0,2012-12-29 23:53:00
5:53 PM,57.9,21.0,24,29.93,10.0,West,3.5,-,N/A,,Clear,270,2012-12-30 00:53:00
6:53 PM,54.0,21.9,29,29.93,10.0,West,5.8,-,N/A,,Clear,260,2012-12-30 01:53:00
7:53 PM,52.0,23.0,32,29.95,10.0,Calm,Calm,-,N/A,,Clear,0,2012-12-30 02:53:00
8:53 PM,50.0,23.0,35,29.94,10.0,WSW,3.5,-,N/A,,Clear,250,2012-12-30 03:53:00
9:53 PM,48.9,24.1,38,29.94,10.0,West,4.6,-,N/A,,Clear,270,2012-12-30 04:53:00
10:53 PM,46.9,25.0,42,29.94,10.0,SSE,3.5,-,N/A,,Clear,160,2012-12-30 05:53:00
11:53 PM,44.1,25.0,47,29.93,10.0,SSE,6.9,-,N/A,,Clear,150,2012-12-30 06:53:00